Location: Unspecified
(48.5670°N, 0.0000°E)
Time: 09:04:29
(UTC+00:00)

Vanguard 2 - Visible Passes

Search period start: 24 July 2019 00:00
Search period end: 03 August 2019 00:00
Orbit: 553 x 2938 km, 32.9° (Epoch: 23 July)

Date Brightness Start Highest point End Pass type
(mag) Time Alt. Az. Time Alt. Az. Time Alt. Az.
24 Jul 9.7 00:12:00 10° WSW 00:23:30 34° S 00:31:10 10° SE visible
24 Jul 9.7 02:24:53 10° WSW 02:31:38 18° SSW 02:36:07 10° S visible
24 Jul 10.7 20:09:08 10° SSW 20:22:06 27° SSE 20:32:34 10° ESE visible
24 Jul 10.1 22:18:08 10° SW 22:31:59 37° S 22:41:36 10° ESE visible
25 Jul 9.6 00:29:51 10° WSW 00:41:06 32° SSW 00:42:54 30° S visible
25 Jul 10.0 02:43:41 10° WSW 02:52:04 11° SSW 02:52:30 10° S visible
25 Jul 10.6 20:25:42 10° SSW 20:39:45 32° SSE 20:50:50 10° ESE visible
25 Jul 10.0 22:35:38 10° WSW 22:49:42 39° S 22:57:32 17° SE visible
26 Jul 9.8 00:47:51 10° WSW 00:58:36 30° SSW 00:58:52 30° SSW visible
26 Jul10.503:11:36S03:11:36S03:00:12WSWvisible
26 Jul 10.5 20:42:37 10° SW 20:57:25 36° SSE 21:08:53 10° ESE visible
26 Jul 10.0 22:53:18 10° WSW 23:07:23 39° S 23:13:38 24° SE visible
27 Jul 10.0 01:05:59 10° WSW 01:14:58 26° SW 01:14:58 26° SW visible
27 Jul 10.4 20:59:49 10° SW 21:15:07 39° S 21:26:49 10° ESE visible
27 Jul 10.0 23:11:05 10° WSW 23:25:02 38° SSW 23:29:46 29° SSE visible
28 Jul 10.3 01:24:20 10° WSW 01:31:07 21° SW 01:31:07 21° SW visible
28 Jul 10.3 21:17:13 10° WSW 21:32:50 42° S 21:44:35 10° ESE visible
28 Jul 9.9 23:28:59 10° WSW 23:42:36 36° SSW 23:45:56 32° S visible
29 Jul 10.7 01:43:02 10° WSW 01:47:17 16° WSW 01:47:17 16° WSW visible
29 Jul 10.3 21:34:48 10° WSW 21:50:32 43° S 22:00:46 16° ESE visible
29 Jul 10.0 23:47:00 10° WSW 00:00:06 33° SSW 00:02:07 32° S visible
30 Jul 10.9 02:02:26 10° WSW 02:03:27 11° WSW 02:03:27 11° WSW visible
30 Jul 10.3 21:52:30 10° WSW 22:08:13 43° S 22:16:57 21° SE visible
31 Jul 10.2 00:05:10 10° W 00:17:31 30° SSW 00:18:17 29° SSW visible
31 Jul 10.6 19:59:24 10° SW 20:15:22 43° S 20:29:06 10° ESE visible
31 Jul 10.3 22:10:19 10° WSW 22:25:51 41° SSW 22:33:07 25° SE visible
01 Aug 10.4 00:23:31 10° W 00:34:28 25° SW 00:34:28 25° SW visible
01 Aug 10.6 20:16:52 10° WSW 20:33:03 44° S 20:46:54 10° ESE visible
01 Aug 10.2 22:28:14 10° WSW 22:43:26 39° SSW 22:49:18 29° SSE visible
02 Aug 10.7 00:42:12 10° W 00:50:39 20° SW 00:50:39 20° SW visible
02 Aug 10.6 20:34:29 10° WSW 20:50:45 45° S 21:04:08 11° ESE visible
02 Aug 10.3 22:46:16 10° W 23:00:56 36° SSW 23:05:29 30° S visible
